User: anonymous   Login
Location: Caltech
(34.1382°N, 118.1253°W)
Time: 10:28:33
(UTC-08:00)
Language:

Cosmos 1937 Rocket - Orbit

View from above orbital plane
View from above orbital plane
View from above satellite
View from above satellite

Ground track
Ground track

The orbit data is extracted from the following two-line orbital elements,

1 19039U 88029B   15025.71305405  .00000116  00000-0  46841-4 0  2366
2 19039 074.0488 107.7195 0022627 139.4444 027.0721 14.38135908405272
Epoch (UTC): 25 January 2015 17:06:47
Eccentricity: 0.0022627
inclination: 74.0488°
perigee height: 748 km
apogee height: 781 km
right ascension of ascending node: 107.7195°
argument of perigee: 139.4444°
revolutions per day: 14.38135908
mean anomaly at epoch: 27.0721°
orbit number at epoch: 40527

The dashed part of the orbit path shows where the satellite is in the earth's shadow,  

DLR